[[{"header":{"parameterUnit":"m.s-1","parameterCategory":1,"la1":30.2991,"la2":30.254,"lo1":-89.0895,"lo2":-89.0444,"dy":0.0017,"dx":0.0017,"nx":28,"ny":28,"refTime":"2025-07-21T21:00:00:Z","depth":0,"parameterNumber":2,"parameterNumberName":"U-component_of_WINDS"},"data":[0,0,0,0,0,0,0,0,0,0,0,0,0,0,0,0,0,0,0,0,0,0,0,0,0,0,0,0,0,0,0,0,0,0,0,0,0,0,0,0,0,0,0,0,0,0,0,0,0,0,0,0,0,0,0,0,0,0,2.6419,2.6419,0,2.6386,2.6386,2.6386,2.6293,2.6291,2.6289,2.6287,2.6252,2.6253,2.6254,0,0,0,0,0,0,0,0,0,0,0,0,0,2.6404,2.6405,2.6419,2.6419,2.6419,2.6386,2.6386,2.6385,2.6293,2.6291,2.6289,2.6286,2.6252,2.6253,2.6254,0,0,0,0,0,0,0,0,0,0,0,0,0,2.6395,2.6405,2.642,2.6369,2.6364,2.6387,2.6386,2.6385,2.6294,2.6291,2.6288,2.6285,2.6252,2.6253,2.6254,2.6323,0,0,2.6259,2.6259,0,0,0,0,0,0,0,0,2.6396,2.6396,2.6377,2.6372,2.6367,2.6341,2.6368,2.6364,2.6295,2.6321,2.6287,2.6284,2.6284,2.6283,2.6283,2.6321,2.632,2.6259,2.626,2.626,2.6261,0,0,0,0,0,0,0,2.6396,2.6396,2.6406,2.6377,2.6371,2.6348,2.6344,2.6367,2.6319,2.6318,2.6311,2.6309,2.6281,2.6282,2.6282,2.6319,2.6259,2.626,2.6261,2.6261,2.6417,2.642,0,0,0,0,0,0,2.6404,2.6398,2.6407,2.6405,2.6374,2.6351,2.6346,2.6352,2.6319,2.6311,2.6311,2.6304,2.6281,2.628,2.628,2.6361,2.626,2.6262,2.6262,2.6413,2.6417,2.6421,0,0,0,0,0,0,2.6404,2.6406,2.6409,2.64,2.6398,2.6354,2.6362,2.6353,2.6354,2.6314,2.6305,2.6321,2.6279,2.6278,2.6314,2.6358,2.6262,2.6263,2.6409,2.6415,2.6419,2.6522,0,0,0,0,0,0,2.6404,2.6406,2.6432,2.6401,2.6399,2.6443,2.6365,2.6355,2.6357,2.6348,2.6321,2.6313,2.6276,2.6312,2.6316,2.6359,2.6265,2.6405,2.6412,2.6418,2.6515,2.653,2.6543,0,0,0,0,0,2.6404,2.6461,2.6433,2.6435,2.643,2.6446,2.6445,2.6401,2.6361,2.6386,2.6361,2.6314,2.6353,2.6317,2.6319,2.6364,2.6402,2.641,2.6417,2.6508,2.6527,2.6543,0,0,0,0,0,0,2.6497,2.6456,2.6425,2.6474,2.6464,2.643,2.6461,2.6422,2.6423,2.6415,2.636,2.6355,2.64,2.6385,2.6345,2.643,2.637,2.6378,2.6439,2.6456,2.647,2.6474,2.6266,0,0,0,0,0,2.6523,2.654,2.6503,2.655,2.6547,2.6505,2.651,2.6478,2.6466,2.6461,2.6438,2.6428,2.6438,2.6446,2.6453,2.6512,2.6506,2.6544,2.6558,2.657,2.6578,2.6612,2.6629,2.6445,2.6445,2.6445,0,0,2.6578,2.6557,2.6571,2.6568,2.6557,2.6576,2.6502,2.6525,2.6539,2.6464,2.6498,2.6481,2.6466,2.6516,2.6536,2.6505,2.6628,2.6579,2.6589,2.6591,2.6621,2.6639,2.6654,2.645,2.6449,2.6448,0,0,2.6687,2.6672,2.6711,2.6702,2.6687,2.6659,2.6669,2.6642,2.6628,2.6661,2.6607,2.6623,2.664,2.6633,2.6632,2.6743,2.6701,2.6746,2.6821,2.6855,2.6869,2.6882,2.6924,2.694,2.6754,2.6755,2.6755,0,2.6756,2.6783,2.6736,2.6764,2.6765,2.67,2.674,2.6733,2.6721,2.6724,2.6689,2.6712,2.6697,2.6746,2.6773,2.6773,2.6784,2.675,2.6871,2.6883,2.6894,2.6934,2.695,2.676,2.676,2.6759,2.6759,0,2.6871,2.6891,2.6924,2.6916,2.6921,2.6954,2.6913,2.6924,2.6892,2.6869,2.6905,2.6885,2.6889,2.6897,2.6865,2.6942,2.6923,2.6881,2.6819,2.6919,2.6955,2.697,2.6769,2.6767,2.6765,2.6763,0,0,2.7037,2.7004,2.7018,2.7015,2.6994,2.7009,2.704,2.7045,2.7057,2.705,2.7077,2.7095,2.7057,2.7056,2.7022,2.7051,2.7144,2.7005,2.7004,2.7034,2.7231,2.7266,2.7284,2.7116,2.7118,2.7121,2.7234,0,2.7143,2.7195,2.7155,2.7215,2.7235,2.7174,2.7202,2.7193,2.7173,2.7187,2.7163,2.7179,2.7125,2.7125,2.715,2.7128,2.7184,2.7118,2.7142,2.7143,2.715,2.7302,2.7337,2.7445,2.7247,2.725,2.7251,0,2.7273,2.7275,2.7338,2.7317,2.7323,2.7349,2.7352,2.7365,2.7355,2.7338,2.7339,2.7299,2.7329,2.7269,2.7312,2.7269,2.7276,2.7266,2.7269,2.7271,2.7205,2.7311,2.7478,2.7495,2.7273,2.7271,2.7269,0,2.7392,2.741,2.7451,2.745,2.7425,2.7445,2.7436,2.7422,2.7429,2.7431,2.7435,2.744,2.7444,2.745,2.7413,2.7371,2.7462,2.7397,2.7451,2.7452,2.7474,2.7473,2.7647,2.7475,2.7475,2.7474,2.7474,0,2.7515,2.7557,2.7505,2.753,2.7575,2.7529,2.7575,2.756,2.7549,2.7571,2.7518,2.754,2.7489,2.7506,2.7477,2.752,2.752,2.7509,2.7502,2.7515,2.7517,2.752,2.7513,2.7478,2.7478,2.7477,2.7476,0,2.7656,2.7622,2.7663,2.7638,2.7632,2.7667,2.7645,2.7669,2.7645,2.7674,2.7678,2.7642,2.766,2.7624,2.7636,2.7616,2.7677,2.7656,2.7681,2.7676,2.7733,2.7729,2.7916,2.794,2.7751,2.7753,2.7754,0,2.7738,2.7769,2.7747,2.7759,2.7753,2.7772,2.7779,2.7735,2.7745,2.7737,2.7762,2.7775,2.7784,2.7816,2.7791,2.7801,2.7781,2.7846,2.7782,2.7797,2.7786,2.7785,2.779,2.786,2.7862,2.7864,2.7866,0,2.7889,2.7871,2.7883,2.7891,2.7901,2.7905,2.7904,2.7917,2.7871,2.7884,2.7903,2.791,2.7924,2.7939,2.7943,2.7934,2.7894,2.7886,2.7899,2.7915,2.7929,2.7925,2.772,2.7882,2.788,2.7879,2.7878,2.7878,2.8004,2.803,2.802,2.8036,2.8032,2.8034,2.8055,2.8036,2.805,2.8059,2.8032,2.8058,2.8049,2.8051,2.8047,2.8067,2.8038,2.8056,2.8062,2.8068,2.8078,2.7925,2.8067,2.8067,2.8066,2.8066,2.8065,0,2.8154,2.8145,2.8161,2.8163,2.8177,2.8138,2.8136,2.815,2.8174,2.8169,2.818,2.8202,2.8218,2.8195,2.8206,2.8227,2.8209,2.8232,2.8231,2.823,2.8102,2.8091,2.8247,2.8247,2.8247,2.8247,2.8247,2.8246,2.8234,2.8277,2.8259,2.8301,2.8291,2.8316,2.8319,2.8321,2.8318,2.8346,2.8359,2.8344,2.8334,2.8344,2.8357,2.835,2.8358,2.8389,2.8376,2.8256,2.8239,2.8222,2.8211,2.839,2.839,2.8502,2.8503,2.8504]},{"header":{"parameterUnit":"m.s-1","parameterCategory":1,"la1":30.2991,"la2":30.254,"lo1":-89.0895,"lo2":-89.0444,"dy":0.0017,"dx":0.0017,"nx":28,"ny":28,"refTime":"2025-07-21T21:00:00:Z","depth":0,"parameterNumber":3,"parameterNumberName":"V-component_of_WINDS"},"data":[0,0,0,0,0,0,0,0,0,0,0,0,0,0,0,0,0,0,0,0,0,0,0,0,0,0,0,0,0,0,0,0,0,0,0,0,0,0,0,0,0,0,0,0,0,0,0,0,0,0,0,0,0,0,0,0,0,0,-3.1779,-3.1779,0,-3.1779,-3.1779,-3.1779,-3.174,-3.1738,-3.1737,-3.1736,-3.1736,-3.1736,-3.1737,0,0,0,0,0,0,0,0,0,0,0,0,0,-3.1745,-3.1746,-3.1779,-3.1779,-3.1779,-3.1779,-3.1779,-3.1779,-3.174,-3.1738,-3.1737,-3.1736,-3.1735,-3.1736,-3.1737,0,0,0,0,0,0,0,0,0,0,0,0,0,-3.1754,-3.1746,-3.1779,-3.1759,-3.1758,-3.1779,-3.1779,-3.1779,-3.174,-3.1738,-3.1737,-3.1735,-3.1735,-3.1736,-3.1738,-3.1778,0,0,-3.1742,-3.1743,0,0,0,0,0,0,0,0,-3.1754,-3.1755,-3.1762,-3.1761,-3.1759,-3.1758,-3.1767,-3.1779,-3.174,-3.1747,-3.1736,-3.1735,-3.1744,-3.1745,-3.1748,-3.1777,-3.1777,-3.1742,-3.1743,-3.1744,-3.1744,0,0,0,0,0,0,0,-3.1753,-3.1755,-3.1779,-3.1762,-3.176,-3.1751,-3.175,-3.1769,-3.1754,-3.1746,-3.1743,-3.1744,-3.1743,-3.1747,-3.1748,-3.1777,-3.1742,-3.1743,-3.1744,-3.1745,-3.1842,-3.1844,0,0,0,0,0,0,-3.1755,-3.1755,-3.1779,-3.1779,-3.1752,-3.1753,-3.1752,-3.176,-3.1754,-3.1751,-3.1745,-3.1742,-3.1745,-3.1746,-3.1748,-3.1796,-3.1744,-3.1745,-3.1746,-3.184,-3.1842,-3.1844,0,0,0,0,0,0,-3.1755,-3.1758,-3.1779,-3.1766,-3.1768,-3.1755,-3.1764,-3.176,-3.1764,-3.1753,-3.175,-3.1752,-3.1744,-3.1746,-3.1771,-3.1795,-3.1746,-3.1747,-3.1838,-3.1841,-3.1843,-3.1891,0,0,0,0,0,0,-3.1754,-3.1758,-3.1772,-3.1767,-3.1769,-3.1802,-3.1765,-3.1762,-3.1767,-3.1763,-3.1759,-3.1756,-3.1743,-3.1769,-3.1772,-3.1796,-3.1748,-3.1836,-3.184,-3.1843,-3.1887,-3.1895,-3.1901,0,0,0,0,0,-3.1753,-3.1785,-3.1773,-3.1777,-3.1787,-3.1804,-3.1805,-3.1789,-3.1769,-3.1784,-3.1777,-3.1757,-3.1792,-3.1772,-3.1775,-3.18,-3.1835,-3.1839,-3.1842,-3.1884,-3.1893,-3.1901,0,0,0,0,0,0,-3.1793,-3.1784,-3.1771,-3.1802,-3.1804,-3.1797,-3.1815,-3.1799,-3.1806,-3.1802,-3.1782,-3.1781,-3.181,-3.1807,-3.1786,-3.1839,-3.181,-3.1814,-3.184,-3.1849,-3.1856,-3.1856,-3.1749,0,0,0,0,0,-3.1805,-3.182,-3.1811,-3.184,-3.1841,-3.1829,-3.1835,-3.1823,-3.1824,-3.1824,-3.1819,-3.1821,-3.1832,-3.184,-3.185,-3.1887,-3.1886,-3.1905,-3.1912,-3.1918,-3.1923,-3.1944,-3.1953,-3.1857,-3.1857,-3.1857,0,0,-3.1831,-3.1828,-3.1838,-3.1848,-3.1848,-3.1864,-3.1829,-3.1847,-3.1859,-3.1827,-3.1851,-3.1848,-3.1848,-3.188,-3.1894,-3.1878,-3.1949,-3.1923,-3.1928,-3.1929,-3.1949,-3.1958,-3.1966,-3.186,-3.1859,-3.1859,0,0,-3.1887,-3.1885,-3.191,-3.1912,-3.1913,-3.1904,-3.191,-3.1906,-3.1903,-3.1927,-3.1904,-3.1918,-3.1938,-3.194,-3.1944,-3.2003,-3.1985,-3.2007,-3.2044,-3.2065,-3.2072,-3.2079,-3.2102,-3.211,-3.2011,-3.2011,-3.2011,0,-3.1919,-3.1942,-3.1925,-3.1945,-3.195,-3.1923,-3.1949,-3.1951,-3.1955,-3.196,-3.1943,-3.1969,-3.1967,-3.2,-3.2015,-3.2018,-3.2025,-3.2007,-3.2073,-3.2079,-3.2085,-3.2107,-3.2115,-3.2014,-3.2014,-3.2013,-3.2013,0,-3.1982,-3.1998,-3.2018,-3.2024,-3.2032,-3.2055,-3.2042,-3.2052,-3.2039,-3.2033,-3.2059,-3.2057,-3.2067,-3.2073,-3.2061,-3.2105,-3.2096,-3.2076,-3.2046,-3.2097,-3.2117,-3.2125,-3.2018,-3.2017,-3.2016,-3.2015,0,0,-3.2061,-3.206,-3.2067,-3.2071,-3.2071,-3.2084,-3.2106,-3.2116,-3.2126,-3.213,-3.2149,-3.2168,-3.215,-3.2155,-3.2142,-3.216,-3.221,-3.2139,-3.2138,-3.2153,-3.2261,-3.2276,-3.2286,-3.2198,-3.2199,-3.22,-3.2261,0,-3.2116,-3.2154,-3.2141,-3.218,-3.2196,-3.2172,-3.2191,-3.2194,-3.2189,-3.2202,-3.2197,-3.2211,-3.2186,-3.2189,-3.2206,-3.22,-3.2231,-3.2196,-3.2216,-3.2217,-3.2217,-3.2296,-3.2312,-3.237,-3.2269,-3.227,-3.2271,0,-3.2185,-3.2194,-3.2235,-3.2235,-3.2241,-3.2259,-3.2269,-3.2281,-3.2285,-3.228,-3.2286,-3.2271,-3.2293,-3.2263,-3.2294,-3.2271,-3.2278,-3.2277,-3.2279,-3.2281,-3.2247,-3.2301,-3.2387,-3.2396,-3.2283,-3.2282,-3.2281,0,-3.2241,-3.2263,-3.2291,-3.2294,-3.2295,-3.2308,-3.2309,-3.231,-3.2319,-3.2327,-3.2333,-3.2343,-3.2349,-3.2359,-3.2347,-3.2326,-3.2381,-3.2349,-3.2378,-3.2379,-3.2391,-3.2391,-3.2481,-3.2394,-3.2394,-3.2394,-3.2394,0,-3.2304,-3.2331,-3.2317,-3.2334,-3.2363,-3.2348,-3.2378,-3.2375,-3.2378,-3.2395,-3.2374,-3.239,-3.2373,-3.2388,-3.2379,-3.2408,-3.241,-3.2408,-3.2405,-3.241,-3.2411,-3.2415,-3.2411,-3.2396,-3.2396,-3.2395,-3.2395,0,-3.2372,-3.2363,-3.2392,-3.2391,-3.2391,-3.2413,-3.2412,-3.2428,-3.2423,-3.2445,-3.2449,-3.244,-3.2457,-3.2447,-3.2463,-3.2457,-3.2495,-3.2486,-3.2494,-3.2492,-3.2523,-3.252,-3.2619,-3.2632,-3.2537,-3.2538,-3.2538,0,-3.2413,-3.2433,-3.2435,-3.2445,-3.2448,-3.2464,-3.2473,-3.2459,-3.2469,-3.2476,-3.2492,-3.2507,-3.2519,-3.2547,-3.2542,-3.2556,-3.2548,-3.2582,-3.2549,-3.2555,-3.255,-3.255,-3.2552,-3.2588,-3.2589,-3.259,-3.2591,0,-3.2488,-3.2483,-3.2497,-3.251,-3.2522,-3.2531,-3.2538,-3.2548,-3.2535,-3.2547,-3.2565,-3.2574,-3.2592,-3.2608,-3.262,-3.2621,-3.2604,-3.2601,-3.2609,-3.2615,-3.2619,-3.2619,-3.2513,-3.2599,-3.2598,-3.2598,-3.2597,-3.2597,-3.2544,-3.2562,-3.2567,-3.2584,-3.2588,-3.2596,-3.2613,-3.261,-3.2625,-3.2639,-3.263,-3.2652,-3.2656,-3.267,-3.2673,-3.269,-3.2676,-3.2687,-3.269,-3.2693,-3.2698,-3.2616,-3.2692,-3.2692,-3.2691,-3.2691,-3.2691,0,-3.262,-3.2622,-3.2638,-3.265,-3.2664,-3.2648,-3.2656,-3.2668,-3.2688,-3.2694,-3.2706,-3.2728,-3.2744,-3.2741,-3.2756,-3.277,-3.2763,-3.2775,-3.2774,-3.2775,-3.2709,-3.2701,-3.278,-3.278,-3.278,-3.278,-3.278,-3.278,-3.266,-3.269,-3.2687,-3.2719,-3.2721,-3.2743,-3.275,-3.2758,-3.2763,-3.2788,-3.2802,-3.28,-3.2803,-3.2818,-3.2833,-3.2832,-3.2839,-3.2853,-3.2849,-3.2788,-3.2779,-3.2771,-3.2764,-3.2854,-3.2855,-3.2914,-3.2915,-3.2915]}]]